Location: Łódź
(51.7951°N, 19.4477°E)
Time: 06:11:21
(UTC+01:00)

ISS - Pass Details

Date: 24 January 2019
Orbit: 403 x 411 km, 51.6° (Epoch: 23 February)

Event Time Altitude Azimuth Distance (km) Brightness Sun altitude
Rises 19:17:08 0° 241° (WSW) 2,333 0.9 -27.7°
Reaches altitude 10° 19:19:14 10° 236° (SW) 1,476 -0.4 -28.0°
Enters shadow 19:19:45 14° 234° (SW) 1,277 -0.8 -28.1°
